LOCATION_NAME,SAMPLE COLLECTION TIME,DOSE EQUIVALENT RATE (nSv/h),GAMMA COUNT RATE R02 (CPM),GAMMA COUNT RATE R03 (CPM),GAMMA COUNT RATE R04 (CPM),GAMMA COUNT RATE R05 (CPM),GAMMA COUNT RATE R06 (CPM),GAMMA COUNT RATE R07 (CPM),GAMMA COUNT RATE R08 (CPM),GAMMA COUNT RATE R09 (CPM),STATUS
CA: FRESNO,01/01/2018 00:15:00,,3321.00,2061.00,577.00,313.00,184.00,212.00,138.00,54.00,APPROVED
CA: FRESNO,01/01/2018 01:15:00,,3470.00,2140.00,580.00,315.00,186.00,211.00,136.00,55.00,APPROVED
CA: FRESNO,01/01/2018 02:15:00,,3679.00,2244.00,592.00,320.00,187.00,214.00,133.00,53.00,APPROVED
CA: FRESNO,01/01/2018 03:15:00,,3833.00,2312.00,603.00,316.00,188.00,212.00,132.00,53.00,APPROVED
CA: FRESNO,01/01/2018 04:15:00,,3961.00,2389.00,608.00,323.00,189.00,213.00,131.00,52.00,APPROVED
CA: FRESNO,01/01/2018 05:16:00,,4012.00,2390.00,609.00,319.00,187.00,213.00,133.00,50.00,APPROVED
CA: FRESNO,01/01/2018 06:16:00,,4035.00,2419.00,613.00,318.00,190.00,213.00,128.00,52.00,APPROVED
CA: FRESNO,01/01/2018 07:16:00,,4113.00,2472.00,621.00,325.00,191.00,217.00,132.00,53.00,APPROVED
CA: FRESNO,01/01/2018 08:16:00,,4184.00,2516.00,623.00,338.00,193.00,222.00,134.00,52.00,APPROVED
CA: FRESNO,01/01/2018 09:16:00,,4223.00,2553.00,636.00,339.00,195.00,221.00,135.00,55.00,APPROVED
CA: FRESNO,01/01/2018 10:17:00,,4294.00,2622.00,641.00,348.00,198.00,221.00,141.00,55.00,APPROVED
CA: FRESNO,01/01/2018 11:17:00,,4321.00,2626.00,637.00,346.00,198.00,225.00,139.00,57.00,APPROVED
CA: FRESNO,01/01/2018 12:17:00,,4385.00,2682.00,651.00,355.00,200.00,227.00,143.00,56.00,APPROVED
CA: FRESNO,01/01/2018 13:17:00,,4375.00,2684.00,642.00,357.00,200.00,223.00,142.00,56.00,APPROVED
CA: FRESNO,01/01/2018 14:17:00,,4440.00,2734.00,654.00,364.00,201.00,229.00,141.00,58.00,APPROVED
CA: FRESNO,01/01/2018 15:18:00,,4457.00,2741.00,662.00,365.00,202.00,229.00,141.00,57.00,APPROVED
CA: FRESNO,01/01/2018 16:18:00,,4510.00,2778.00,664.00,370.00,205.00,232.00,146.00,57.00,APPROVED
CA: FRESNO,01/01/2018 17:18:00,,4513.00,2779.00,661.00,369.00,200.00,232.00,145.00,57.00,APPROVED
CA: FRESNO,01/01/2018 18:18:00,,4504.00,2736.00,668.00,366.00,206.00,229.00,141.00,56.00,APPROVED
CA: FRESNO,01/01/2018 19:18:00,,4399.00,2670.00,667.00,352.00,203.00,238.00,141.00,55.00,APPROVED
CA: FRESNO,01/01/2018 20:19:00,,4113.00,2484.00,641.00,335.00,196.00,228.00,137.00,54.00,APPROVED
CA: FRESNO,01/01/2018 21:19:00,,3819.00,2333.00,625.00,329.00,195.00,221.00,139.00,55.00,APPROVED
CA: FRESNO,01/01/2018 22:19:00,,3467.00,2140.00,584.00,320.00,191.00,211.00,136.00,57.00,APPROVED
CA: FRESNO,01/01/2018 23:19:00,,3385.00,2100.00,584.00,315.00,186.00,213.00,136.00,56.00,APPROVED
CA: FRESNO,01/02/2018 00:19:00,,3390.00,2108.00,578.00,318.00,186.00,213.00,134.00,56.00,APPROVED
CA: FRESNO,01/02/2018 01:19:00,,3620.00,2215.00,596.00,320.00,186.00,213.00,137.00,54.00,APPROVED
CA: FRESNO,01/02/2018 02:20:00,,3691.00,2242.00,591.00,310.00,185.00,211.00,133.00,54.00,APPROVED
CA: FRESNO,01/02/2018 03:20:00,,3778.00,2286.00,598.00,310.00,187.00,209.00,132.00,51.00,APPROVED
CA: FRESNO,01/02/2018 04:20:00,,3923.00,2361.00,608.00,314.00,186.00,214.00,133.00,53.00,APPROVED
CA: FRESNO,01/02/2018 05:20:00,,3964.00,2373.00,612.00,315.00,190.00,213.00,127.00,51.00,APPROVED
CA: FRESNO,01/02/2018 06:20:00,,4018.00,2406.00,606.00,320.00,188.00,211.00,132.00,51.00,APPROVED
CA: FRESNO,01/02/2018 07:21:00,,4117.00,2475.00,621.00,331.00,190.00,219.00,135.00,53.00,APPROVED
CA: FRESNO,01/02/2018 08:21:00,,4115.00,2490.00,618.00,331.00,195.00,215.00,134.00,54.00,APPROVED
CA: FRESNO,01/02/2018 09:21:00,,4159.00,2533.00,627.00,335.00,192.00,220.00,134.00,53.00,APPROVED
CA: FRESNO,01/02/2018 10:21:00,,4162.00,2520.00,629.00,336.00,193.00,217.00,134.00,53.00,APPROVED
CA: FRESNO,01/02/2018 11:21:00,,4183.00,2522.00,626.00,331.00,193.00,216.00,135.00,55.00,APPROVED
CA: FRESNO,01/02/2018 12:22:00,,4202.00,2555.00,629.00,336.00,193.00,218.00,134.00,55.00,APPROVED
CA: FRESNO,01/02/2018 13:22:00,,4253.00,2590.00,631.00,345.00,197.00,222.00,139.00,53.00,APPROVED
CA: FRESNO,01/02/2018 14:22:00,,4287.00,2592.00,634.00,349.00,193.00,220.00,139.00,55.00,APPROVED
CA: FRESNO,01/02/2018 15:22:00,,4270.00,2605.00,639.00,348.00,197.00,221.00,139.00,54.00,APPROVED
CA: FRESNO,01/02/2018 16:22:00,,4219.00,2563.00,632.00,339.00,196.00,219.00,135.00,54.00,APPROVED
CA: FRESNO,01/02/2018 17:23:00,,4211.00,2554.00,634.00,341.00,196.00,223.00,139.00,53.00,APPROVED
CA: FRESNO,01/02/2018 18:23:00,,4162.00,2519.00,636.00,334.00,194.00,220.00,135.00,55.00,APPROVED
CA: FRESNO,01/02/2018 19:23:00,,4109.00,2475.00,632.00,329.00,196.00,221.00,132.00,54.00,APPROVED
CA: FRESNO,01/02/2018 20:23:00,,4032.00,2425.00,623.00,327.00,192.00,221.00,134.00,54.00,APPROVED
CA: FRESNO,01/02/2018 21:23:00,,3865.00,2338.00,610.00,320.00,191.00,215.00,134.00,52.00,APPROVED
CA: FRESNO,01/02/2018 22:24:00,,3744.00,2276.00,606.00,315.00,186.00,211.00,131.00,52.00,APPROVED
CA: FRESNO,01/02/2018 23:24:00,,3731.00,2259.00,603.00,315.00,190.00,212.00,134.00,54.00,APPROVED
CA: FRESNO,01/03/2018 00:24:00,,3772.00,2279.00,607.00,316.00,190.00,212.00,135.00,52.00,APPROVED
CA: FRESNO,01/03/2018 01:24:00,,3852.00,2317.00,606.00,318.00,192.00,210.00,133.00,53.00,APPROVED
CA: FRESNO,01/03/2018 02:24:00,,3891.00,2339.00,601.00,321.00,191.00,213.00,130.00,52.00,APPROVED
CA: FRESNO,01/03/2018 03:25:00,,3944.00,2365.00,614.00,319.00,187.00,212.00,132.00,52.00,APPROVED
CA: FRESNO,01/03/2018 04:25:00,,4008.00,2389.00,606.00,320.00,191.00,217.00,131.00,54.00,APPROVED
CA: FRESNO,01/03/2018 05:25:00,,4094.00,2455.00,618.00,326.00,192.00,214.00,132.00,53.00,APPROVED
CA: FRESNO,01/03/2018 06:25:00,,4129.00,2499.00,623.00,333.00,190.00,219.00,132.00,53.00,APPROVED
CA: FRESNO,01/03/2018 07:25:00,,4118.00,2485.00,616.00,324.00,192.00,217.00,130.00,54.00,APPROVED
CA: FRESNO,01/03/2018 08:26:00,,4196.00,2548.00,628.00,336.00,191.00,219.00,138.00,53.00,APPROVED
CA: FRESNO,01/03/2018 09:26:00,,4209.00,2544.00,626.00,335.00,193.00,216.00,134.00,53.00,APPROVED
CA: FRESNO,01/03/2018 10:26:00,,4197.00,2557.00,626.00,340.00,198.00,220.00,136.00,53.00,APPROVED
CA: FRESNO,01/03/2018 11:26:00,,4244.00,2570.00,632.00,342.00,195.00,221.00,138.00,53.00,APPROVED
CA: FRESNO,01/03/2018 12:27:00,,4243.00,2589.00,634.00,342.00,197.00,223.00,138.00,54.00,APPROVED
CA: FRESNO,01/03/2018 13:27:00,,4236.00,2571.00,633.00,346.00,193.00,219.00,137.00,56.00,APPROVED
CA: FRESNO,01/03/2018 14:27:00,,4214.00,2564.00,634.00,342.00,196.00,220.00,135.00,53.00,APPROVED
CA: FRESNO,01/03/2018 15:27:00,,4232.00,2577.00,633.00,341.00,195.00,226.00,136.00,55.00,APPROVED
CA: FRESNO,01/03/2018 16:27:00,,4241.00,2565.00,633.00,345.00,196.00,220.00,139.00,54.00,APPROVED
CA: FRESNO,01/03/2018 18:28:00,,3959.00,2399.00,620.00,327.00,189.00,221.00,136.00,53.00,APPROVED
CA: FRESNO,01/03/2018 19:28:00,,3732.00,2292.00,609.00,321.00,187.00,215.00,137.00,53.00,APPROVED
CA: FRESNO,01/03/2018 21:28:00,,3484.00,2176.00,584.00,328.00,189.00,215.00,136.00,57.00,APPROVED
CA: FRESNO,01/03/2018 22:29:00,,3466.00,2163.00,581.00,326.00,189.00,214.00,135.00,55.00,APPROVED
CA: FRESNO,01/03/2018 23:29:00,,3461.00,2147.00,576.00,322.00,187.00,209.00,138.00,54.00,APPROVED
CA: FRESNO,01/04/2018 00:29:00,,3687.00,2289.00,608.00,340.00,193.00,222.00,140.00,58.00,APPROVED
CA: FRESNO,01/04/2018 01:29:00,,3883.00,2395.00,627.00,340.00,197.00,226.00,141.00,56.00,APPROVED
CA: FRESNO,01/04/2018 02:29:00,,3869.00,2357.00,613.00,328.00,194.00,218.00,135.00,54.00,APPROVED
CA: FRESNO,01/04/2018 03:30:00,,3827.00,2334.00,601.00,324.00,187.00,216.00,133.00,52.00,APPROVED
CA: FRESNO,01/04/2018 04:30:00,,3802.00,2323.00,599.00,318.00,186.00,211.00,131.00,52.00,APPROVED
CA: FRESNO,01/04/2018 05:30:00,,3999.00,2430.00,622.00,332.00,195.00,223.00,136.00,55.00,APPROVED
CA: FRESNO,01/04/2018 06:30:00,,4168.00,2555.00,652.00,348.00,200.00,233.00,140.00,55.00,APPROVED
CA: FRESNO,01/04/2018 07:30:00,,4332.00,2639.00,666.00,357.00,203.00,242.00,143.00,56.00,APPROVED
CA: FRESNO,01/04/2018 08:31:00,,4358.00,2645.00,671.00,361.00,205.00,239.00,142.00,56.00,APPROVED
CA: FRESNO,01/04/2018 09:31:00,,4281.00,2604.00,662.00,347.00,201.00,235.00,135.00,55.00,APPROVED
CA: FRESNO,01/04/2018 10:31:00,,4175.00,2561.00,646.00,347.00,197.00,230.00,135.00,54.00,APPROVED
CA: FRESNO,01/04/2018 11:31:00,,4137.00,2548.00,644.00,341.00,198.00,231.00,136.00,55.00,APPROVED
CA: FRESNO,01/04/2018 12:31:00,,4004.00,2442.00,623.00,327.00,191.00,219.00,133.00,55.00,APPROVED
CA: FRESNO,01/04/2018 13:32:00,,3886.00,2332.00,595.00,309.00,184.00,207.00,125.00,52.00,APPROVED
CA: FRESNO,01/04/2018 14:32:00,,3768.00,2254.00,581.00,300.00,180.00,203.00,126.00,51.00,APPROVED
CA: FRESNO,01/04/2018 15:47:00,,3737.00,2320.00,603.00,323.00,188.00,221.00,132.00,53.00,APPROVED
CA: FRESNO,01/04/2018 16:47:00,,3714.00,2425.00,640.00,376.00,206.00,244.00,147.00,57.00,APPROVED
CA: FRESNO,01/04/2018 17:47:00,,3571.00,2360.00,643.00,380.00,209.00,246.00,149.00,59.00,APPROVED
CA: FRESNO,01/04/2018 18:47:00,,3418.00,2239.00,616.00,369.00,203.00,236.00,147.00,58.00,APPROVED
CA: FRESNO,01/04/2018 19:48:00,,3370.00,2261.00,624.00,377.00,206.00,244.00,151.00,61.00,APPROVED
CA: FRESNO,01/04/2018 20:48:00,,3291.00,2231.00,622.00,386.00,207.00,244.00,153.00,63.00,APPROVED
CA: FRESNO,01/04/2018 21:48:00,,3178.00,2115.00,595.00,364.00,201.00,232.00,147.00,64.00,APPROVED
CA: FRESNO,01/04/2018 22:48:00,,3047.00,1991.00,580.00,337.00,191.00,222.00,141.00,60.00,APPROVED
CA: FRESNO,01/04/2018 23:48:00,,2985.00,1926.00,557.00,319.00,184.00,214.00,137.00,58.00,APPROVED
CA: FRESNO,01/05/2018 00:49:00,,3070.00,1982.00,568.00,321.00,186.00,216.00,138.00,58.00,APPROVED
CA: FRESNO,01/05/2018 01:49:00,,3212.00,2108.00,587.00,342.00,194.00,225.00,143.00,60.00,APPROVED
CA: FRESNO,01/05/2018 02:49:00,,3380.00,2237.00,611.00,364.00,205.00,235.00,147.00,62.00,APPROVED
CA: FRESNO,01/05/2018 03:49:00,,3562.00,2422.00,655.00,409.00,212.00,255.00,160.00,65.00,APPROVED
CA: FRESNO,01/05/2018 04:49:00,,3589.00,2504.00,675.00,434.00,217.00,270.00,165.00,67.00,APPROVED
CA: FRESNO,01/05/2018 05:50:00,,3605.00,2517.00,670.00,440.00,224.00,271.00,163.00,71.00,APPROVED
CA: FRESNO,01/05/2018 06:50:00,,3667.00,2534.00,673.00,437.00,221.00,267.00,163.00,68.00,APPROVED
CA: FRESNO,01/05/2018 07:50:00,,3712.00,2554.00,669.00,434.00,220.00,263.00,161.00,68.00,APPROVED
CA: FRESNO,01/05/2018 08:50:00,,3710.00,2559.00,666.00,445.00,223.00,262.00,161.00,69.00,APPROVED
CA: FRESNO,01/05/2018 09:50:00,,3683.00,2547.00,666.00,438.00,220.00,264.00,163.00,70.00,APPROVED
CA: FRESNO,01/05/2018 10:51:00,,3735.00,2578.00,675.00,438.00,223.00,266.00,164.00,71.00,APPROVED
CA: FRESNO,01/05/2018 11:51:00,,3731.00,2542.00,668.00,425.00,213.00,260.00,161.00,68.00,APPROVED
CA: FRESNO,01/05/2018 12:51:00,,3677.00,2488.00,648.00,404.00,214.00,249.00,155.00,65.00,APPROVED
CA: FRESNO,01/05/2018 13:51:00,,3649.00,2446.00,640.00,398.00,203.00,244.00,153.00,66.00,APPROVED
CA: FRESNO,01/05/2018 14:51:00,,3663.00,2467.00,650.00,393.00,208.00,248.00,153.00,64.00,APPROVED
CA: FRESNO,01/05/2018 16:52:00,,3725.00,2481.00,655.00,402.00,212.00,246.00,154.00,66.00,APPROVED
CA: FRESNO,01/05/2018 17:52:00,,3591.00,2420.00,652.00,401.00,211.00,252.00,154.00,66.00,APPROVED
CA: FRESNO,01/05/2018 18:52:00,,3338.00,2295.00,639.00,392.00,212.00,250.00,158.00,67.00,APPROVED
CA: FRESNO,01/05/2018 19:52:00,,3162.00,2118.00,608.00,363.00,198.00,233.00,148.00,64.00,APPROVED
CA: FRESNO,01/05/2018 20:53:00,,3057.00,2014.00,587.00,344.00,189.00,226.00,145.00,61.00,APPROVED
CA: FRESNO,01/05/2018 21:53:00,,3059.00,1993.00,559.00,323.00,186.00,212.00,137.00,57.00,APPROVED
CA: FRESNO,01/05/2018 23:53:00,,3338.00,2128.00,562.00,322.00,180.00,206.00,131.00,57.00,APPROVED
CA: FRESNO,01/06/2018 00:50:00,,3312.00,2107.00,556.00,312.00,178.00,203.00,130.00,55.00,APPROVED
CA: FRESNO,01/12/2018 23:01:00,,3585.00,2067.00,530.00,262.00,166.00,185.00,109.00,50.00,APPROVED
CA: FRESNO,01/13/2018 00:02:00,,3320.00,1953.00,522.00,264.00,167.00,184.00,117.00,48.00,APPROVED
CA: FRESNO,01/13/2018 01:02:00,,3227.00,1948.00,524.00,275.00,169.00,189.00,121.00,52.00,APPROVED
CA: FRESNO,01/13/2018 02:02:00,,3350.00,2069.00,543.00,301.00,176.00,194.00,130.00,51.00,APPROVED
CA: FRESNO,01/13/2018 03:02:00,,3449.00,2139.00,556.00,303.00,178.00,199.00,127.00,53.00,APPROVED
CA: FRESNO,01/13/2018 04:02:00,,3468.00,2152.00,562.00,315.00,180.00,200.00,129.00,53.00,APPROVED
CA: FRESNO,01/13/2018 05:03:00,,3484.00,2163.00,563.00,312.00,184.00,202.00,132.00,53.00,APPROVED
CA: FRESNO,01/13/2018 06:03:00,,3480.00,2175.00,570.00,321.00,181.00,205.00,134.00,56.00,APPROVED
CA: FRESNO,01/13/2018 07:03:00,,3493.00,2166.00,558.00,316.00,184.00,205.00,130.00,52.00,APPROVED
CA: FRESNO,01/13/2018 08:03:00,,3502.00,2176.00,564.00,318.00,182.00,208.00,134.00,53.00,APPROVED
CA: FRESNO,01/13/2018 09:03:00,,3499.00,2178.00,567.00,315.00,183.00,205.00,133.00,52.00,APPROVED
CA: FRESNO,01/13/2018 10:04:00,,3516.00,2182.00,568.00,318.00,181.00,202.00,131.00,52.00,APPROVED
CA: FRESNO,01/13/2018 11:04:00,,3505.00,2171.00,564.00,312.00,179.00,202.00,132.00,54.00,APPROVED
CA: FRESNO,01/13/2018 12:04:00,,3493.00,2153.00,563.00,316.00,181.00,205.00,131.00,51.00,APPROVED
CA: FRESNO,01/13/2018 13:04:00,,3509.00,2180.00,563.00,315.00,184.00,205.00,131.00,52.00,APPROVED
CA: FRESNO,01/13/2018 14:04:00,,3557.00,2215.00,578.00,324.00,185.00,207.00,131.00,55.00,APPROVED
CA: FRESNO,01/13/2018 15:05:00,,3572.00,2230.00,583.00,334.00,187.00,215.00,132.00,54.00,APPROVED
CA: FRESNO,01/13/2018 16:05:00,,3561.00,2247.00,587.00,337.00,187.00,212.00,138.00,56.00,APPROVED
CA: FRESNO,01/13/2018 17:05:00,,3551.00,2247.00,587.00,341.00,187.00,216.00,136.00,55.00,APPROVED
CA: FRESNO,01/13/2018 18:05:00,,3525.00,2242.00,584.00,337.00,191.00,215.00,135.00,55.00,APPROVED
CA: FRESNO,01/13/2018 19:05:00,,3518.00,2233.00,581.00,335.00,186.00,212.00,136.00,54.00,APPROVED
CA: FRESNO,01/13/2018 20:06:00,,3483.00,2205.00,581.00,337.00,190.00,213.00,133.00,56.00,APPROVED
CA: FRESNO,01/13/2018 21:06:00,,3459.00,2191.00,584.00,336.00,186.00,217.00,135.00,56.00,APPROVED
CA: FRESNO,01/13/2018 22:06:00,,3420.00,2163.00,569.00,334.00,189.00,215.00,138.00,55.00,APPROVED
CA: FRESNO,01/13/2018 23:06:00,,3287.00,2067.00,566.00,323.00,182.00,212.00,134.00,56.00,APPROVED
CA: FRESNO,01/14/2018 00:06:00,,3147.00,1992.00,552.00,309.00,183.00,205.00,132.00,54.00,APPROVED
CA: FRESNO,01/14/2018 01:07:00,,3227.00,2031.00,567.00,318.00,186.00,205.00,133.00,52.00,APPROVED
CA: FRESNO,01/14/2018 02:07:00,,3473.00,2177.00,581.00,328.00,187.00,213.00,135.00,54.00,APPROVED
CA: FRESNO,01/14/2018 03:07:00,,3600.00,2279.00,593.00,340.00,189.00,217.00,136.00,55.00,APPROVED
CA: FRESNO,01/14/2018 04:07:00,,3621.00,2288.00,597.00,344.00,194.00,221.00,137.00,58.00,APPROVED
CA: FRESNO,01/14/2018 05:07:00,,3589.00,2287.00,599.00,349.00,193.00,224.00,137.00,55.00,APPROVED
CA: FRESNO,01/14/2018 06:07:00,,3595.00,2300.00,603.00,352.00,195.00,221.00,142.00,57.00,APPROVED
CA: FRESNO,01/14/2018 07:08:00,,3605.00,2313.00,608.00,360.00,196.00,224.00,142.00,55.00,APPROVED
CA: FRESNO,01/14/2018 08:08:00,,3633.00,2337.00,609.00,366.00,197.00,229.00,145.00,59.00,APPROVED
CA: FRESNO,01/14/2018 09:08:00,,3623.00,2344.00,612.00,359.00,199.00,229.00,145.00,57.00,APPROVED
CA: FRESNO,01/14/2018 10:08:00,,3654.00,2349.00,619.00,369.00,200.00,227.00,142.00,59.00,APPROVED
CA: FRESNO,01/14/2018 11:08:00,,3674.00,2388.00,618.00,369.00,199.00,232.00,144.00,57.00,APPROVED
CA: FRESNO,01/14/2018 12:09:00,,3736.00,2440.00,624.00,382.00,203.00,238.00,149.00,58.00,APPROVED
CA: FRESNO,01/14/2018 13:09:00,,3784.00,2458.00,633.00,385.00,202.00,243.00,150.00,60.00,APPROVED
CA: FRESNO,01/14/2018 14:09:00,,3779.00,2447.00,622.00,383.00,204.00,243.00,148.00,57.00,APPROVED
CA: FRESNO,01/14/2018 15:09:00,,3795.00,2464.00,629.00,373.00,203.00,239.00,147.00,58.00,APPROVED
CA: FRESNO,01/14/2018 16:09:00,,3828.00,2496.00,634.00,388.00,209.00,239.00,148.00,61.00,APPROVED
CA: FRESNO,01/14/2018 17:10:00,,3846.00,2513.00,644.00,389.00,210.00,242.00,154.00,62.00,APPROVED
CA: FRESNO,01/14/2018 18:10:00,,3851.00,2521.00,644.00,391.00,210.00,246.00,150.00,60.00,APPROVED
CA: FRESNO,01/14/2018 19:10:00,,3776.00,2481.00,649.00,392.00,206.00,243.00,150.00,63.00,APPROVED
CA: FRESNO,01/14/2018 20:10:00,,3669.00,2399.00,636.00,381.00,207.00,240.00,149.00,60.00,APPROVED
CA: FRESNO,01/14/2018 21:10:00,,3565.00,2324.00,622.00,368.00,200.00,234.00,147.00,58.00,APPROVED
CA: FRESNO,01/14/2018 22:11:00,,3405.00,2220.00,607.00,351.00,200.00,231.00,143.00,56.00,APPROVED
CA: FRESNO,01/14/2018 23:11:00,,3355.00,2191.00,606.00,348.00,193.00,227.00,143.00,57.00,APPROVED
CA: FRESNO,01/15/2018 00:11:00,,3367.00,2189.00,604.00,346.00,196.00,231.00,147.00,57.00,APPROVED
CA: FRESNO,01/15/2018 01:11:00,,3350.00,2187.00,602.00,351.00,196.00,229.00,145.00,60.00,APPROVED
CA: FRESNO,01/15/2018 02:11:00,,3512.00,2283.00,618.00,357.00,200.00,232.00,142.00,59.00,APPROVED
CA: FRESNO,01/15/2018 03:12:00,,3715.00,2422.00,633.00,375.00,203.00,240.00,148.00,60.00,APPROVED
CA: FRESNO,01/15/2018 04:12:00,,3817.00,2492.00,644.00,389.00,211.00,247.00,152.00,63.00,APPROVED
CA: FRESNO,01/15/2018 05:12:00,,3814.00,2494.00,640.00,388.00,207.00,241.00,147.00,61.00,APPROVED
CA: FRESNO,01/15/2018 06:12:00,,3809.00,2478.00,643.00,383.00,206.00,240.00,151.00,61.00,APPROVED
CA: FRESNO,01/15/2018 07:12:00,,3823.00,2468.00,635.00,370.00,202.00,233.00,148.00,59.00,APPROVED
CA: FRESNO,01/15/2018 08:13:00,,3879.00,2509.00,641.00,380.00,208.00,239.00,146.00,61.00,APPROVED
CA: FRESNO,01/15/2018 09:13:00,,3988.00,2659.00,676.00,413.00,217.00,262.00,151.00,64.00,APPROVED
CA: FRESNO,01/15/2018 10:13:00,,3996.00,2699.00,687.00,432.00,220.00,266.00,159.00,65.00,APPROVED
CA: FRESNO,01/15/2018 11:13:00,,3977.00,2651.00,683.00,428.00,219.00,260.00,158.00,65.00,APPROVED
CA: FRESNO,01/15/2018 12:13:00,,4080.00,2736.00,684.00,429.00,223.00,263.00,160.00,64.00,APPROVED
CA: FRESNO,01/15/2018 13:14:00,,4196.00,2882.00,711.00,472.00,235.00,283.00,167.00,67.00,APPROVED
CA: FRESNO,01/15/2018 14:14:00,,4201.00,2910.00,726.00,483.00,233.00,288.00,171.00,68.00,APPROVED
CA: FRESNO,01/15/2018 15:14:00,,4162.00,2887.00,729.00,473.00,237.00,285.00,171.00,69.00,APPROVED
CA: FRESNO,01/15/2018 16:14:00,,4217.00,2894.00,724.00,484.00,238.00,288.00,171.00,68.00,APPROVED
CA: FRESNO,01/15/2018 17:14:00,,4189.00,2848.00,719.00,463.00,232.00,279.00,172.00,67.00,APPROVED
CA: FRESNO,01/15/2018 18:15:00,,4134.00,2864.00,725.00,467.00,233.00,282.00,169.00,68.00,APPROVED
CA: FRESNO,01/15/2018 19:15:00,,4079.00,2849.00,726.00,480.00,239.00,290.00,177.00,69.00,APPROVED
CA: FRESNO,01/15/2018 20:15:00,,3875.00,2675.00,708.00,456.00,230.00,279.00,168.00,69.00,APPROVED
CA: FRESNO,01/15/2018 21:15:00,,3765.00,2553.00,679.00,430.00,221.00,268.00,161.00,66.00,APPROVED
CA: FRESNO,01/15/2018 22:16:00,,3636.00,2438.00,663.00,406.00,217.00,256.00,158.00,64.00,APPROVED
CA: FRESNO,01/15/2018 23:16:00,,3517.00,2349.00,643.00,387.00,211.00,245.00,156.00,65.00,APPROVED
CA: FRESNO,01/16/2018 00:16:00,,3549.00,2371.00,649.00,393.00,210.00,249.00,155.00,63.00,APPROVED
CA: FRESNO,01/16/2018 01:16:00,,3633.00,2453.00,670.00,404.00,214.00,256.00,159.00,63.00,APPROVED
CA: FRESNO,01/16/2018 02:16:00,,3763.00,2536.00,678.00,409.00,223.00,259.00,160.00,64.00,APPROVED
CA: FRESNO,01/16/2018 03:17:00,,3940.00,2663.00,701.00,433.00,226.00,272.00,163.00,67.00,APPROVED
CA: FRESNO,01/16/2018 04:17:00,,4042.00,2773.00,707.00,456.00,230.00,275.00,170.00,68.00,APPROVED
CA: FRESNO,01/16/2018 05:17:00,,4067.00,2784.00,709.00,455.00,227.00,277.00,170.00,69.00,APPROVED
CA: FRESNO,01/16/2018 06:17:00,,4100.00,2811.00,709.00,457.00,233.00,277.00,167.00,70.00,APPROVED
CA: FRESNO,01/16/2018 07:17:00,,4127.00,2851.00,716.00,468.00,233.00,285.00,168.00,71.00,APPROVED
CA: FRESNO,01/16/2018 08:18:00,,4151.00,2889.00,734.00,492.00,240.00,291.00,174.00,72.00,APPROVED
CA: FRESNO,01/16/2018 09:18:00,,4215.00,2947.00,738.00,493.00,244.00,298.00,172.00,73.00,APPROVED
CA: FRESNO,01/16/2018 10:18:00,,4284.00,3014.00,757.00,506.00,244.00,302.00,178.00,72.00,APPROVED
CA: FRESNO,01/16/2018 11:18:00,,4360.00,3116.00,776.00,539.00,256.00,312.00,184.00,75.00,APPROVED
CA: FRESNO,01/16/2018 12:18:00,,4312.00,3048.00,756.00,515.00,250.00,306.00,183.00,73.00,APPROVED
CA: FRESNO,01/16/2018 13:19:00,,4240.00,2967.00,744.00,499.00,244.00,298.00,179.00,70.00,APPROVED
CA: FRESNO,01/16/2018 14:19:00,,4205.00,2936.00,743.00,503.00,242.00,296.00,177.00,73.00,APPROVED
CA: FRESNO,01/16/2018 15:19:00,,4197.00,2943.00,741.00,497.00,241.00,292.00,178.00,72.00,APPROVED
CA: FRESNO,01/16/2018 16:19:00,,4195.00,2945.00,748.00,501.00,243.00,298.00,177.00,72.00,APPROVED
CA: FRESNO,01/16/2018 17:19:00,,4187.00,2960.00,739.00,503.00,243.00,300.00,180.00,75.00,APPROVED
CA: FRESNO,01/16/2018 18:20:00,,4168.00,2934.00,747.00,504.00,242.00,293.00,180.00,73.00,APPROVED
CA: FRESNO,01/16/2018 19:20:00,,4151.00,2932.00,749.00,506.00,246.00,299.00,180.00,73.00,APPROVED
CA: FRESNO,01/16/2018 20:20:00,,4072.00,2904.00,745.00,510.00,246.00,302.00,178.00,75.00,APPROVED
CA: FRESNO,01/16/2018 21:20:00,,3945.00,2798.00,731.00,489.00,242.00,297.00,178.00,76.00,APPROVED
CA: FRESNO,01/16/2018 22:20:00,,3741.00,2608.00,698.00,456.00,231.00,277.00,170.00,71.00,APPROVED
CA: FRESNO,01/16/2018 23:21:00,,3672.00,2515.00,679.00,423.00,223.00,267.00,166.00,67.00,APPROVED
CA: FRESNO,01/17/2018 00:21:00,,3776.00,2573.00,682.00,426.00,223.00,266.00,162.00,65.00,APPROVED
CA: FRESNO,01/17/2018 01:21:00,,3864.00,2640.00,690.00,437.00,227.00,269.00,164.00,68.00,APPROVED
CA: FRESNO,01/17/2018 02:21:00,,3879.00,2624.00,679.00,428.00,218.00,264.00,161.00,66.00,APPROVED
CA: FRESNO,01/17/2018 03:21:00,,3883.00,2619.00,678.00,420.00,224.00,261.00,160.00,66.00,APPROVED
CA: FRESNO,01/17/2018 04:22:00,,3916.00,2632.00,680.00,427.00,218.00,257.00,160.00,67.00,APPROVED
CA: FRESNO,01/17/2018 05:22:00,,4021.00,2726.00,695.00,437.00,226.00,267.00,163.00,66.00,APPROVED
CA: FRESNO,01/17/2018 06:22:00,,4136.00,2826.00,721.00,463.00,236.00,276.00,169.00,68.00,APPROVED
CA: FRESNO,01/17/2018 07:22:00,,4151.00,2818.00,716.00,453.00,230.00,280.00,169.00,66.00,APPROVED
CA: FRESNO,01/17/2018 08:22:00,,4194.00,2836.00,714.00,454.00,231.00,276.00,168.00,67.00,APPROVED
CA: FRESNO,01/17/2018 09:23:00,,4163.00,2945.00,737.00,487.00,237.00,293.00,175.00,72.00,APPROVED
CA: FRESNO,01/17/2018 10:23:00,,4172.00,2939.00,744.00,501.00,242.00,300.00,179.00,72.00,APPROVED
CA: FRESNO,01/17/2018 11:23:00,,4305.00,3104.00,780.00,537.00,257.00,317.00,189.00,75.00,APPROVED
CA: FRESNO,01/17/2018 12:23:00,,4296.00,3093.00,783.00,546.00,259.00,320.00,192.00,76.00,APPROVED
CA: FRESNO,01/17/2018 13:23:00,,4192.00,2986.00,764.00,526.00,252.00,305.00,182.00,77.00,APPROVED
CA: FRESNO,01/17/2018 14:24:00,,4302.00,3064.00,783.00,534.00,255.00,318.00,191.00,77.00,APPROVED
CA: FRESNO,01/17/2018 15:24:00,,4403.00,3203.00,803.00,569.00,265.00,331.00,193.00,80.00,APPROVED
CA: FRESNO,01/17/2018 16:24:00,,4357.00,3181.00,798.00,566.00,266.00,329.00,191.00,77.00,APPROVED
CA: FRESNO,01/17/2018 17:24:00,,4215.00,3012.00,761.00,528.00,253.00,311.00,187.00,73.00,APPROVED
CA: FRESNO,01/17/2018 18:24:00,,4086.00,2890.00,739.00,495.00,240.00,289.00,177.00,71.00,APPROVED
CA: FRESNO,01/17/2018 19:24:00,,4057.00,2818.00,721.00,482.00,237.00,284.00,174.00,69.00,APPROVED
CA: FRESNO,01/17/2018 20:25:00,,4100.00,2875.00,735.00,496.00,243.00,294.00,176.00,74.00,APPROVED
CA: FRESNO,01/17/2018 21:25:00,,3947.00,2771.00,716.00,476.00,241.00,286.00,173.00,74.00,APPROVED
CA: FRESNO,01/17/2018 22:25:00,,3743.00,2616.00,695.00,451.00,227.00,274.00,170.00,69.00,APPROVED
CA: FRESNO,01/17/2018 23:25:00,,3621.00,2501.00,683.00,425.00,220.00,271.00,163.00,66.00,APPROVED
CA: FRESNO,01/18/2018 00:25:00,,3595.00,2462.00,681.00,421.00,222.00,267.00,162.00,67.00,APPROVED
CA: FRESNO,01/18/2018 01:26:00,,3762.00,2558.00,695.00,431.00,223.00,270.00,163.00,66.00,APPROVED
CA: FRESNO,01/18/2018 02:26:00,,3893.00,2667.00,696.00,441.00,227.00,274.00,167.00,66.00,APPROVED